Flag for San Marino Weather past 2 weeks in San Marino, San Marino

Now
57 °F

Clear.


Feels Like: 57 °F
Forecast: 45 / 60 °F
Wind: 2 mph from Southwest

Location: Rimini Airport

Current Time: May 25, 2015 at 1:59:28 AM

Latest Report: May 25, 2015 at 1:15 AM


Visibility: 10 mi

Pressure: 29.92 "Hg

Humidity: 100%

Dew point: 57 °F

Location of San MarinoLocation

Historic Weather in San Marino — Graph

°F

San Marino temperature yesterday

Maximum temperature yesterday: 68 °F (at 3:15 PM)
Minimum temperature yesterday: 57 °F (at 2:45 AM)
Average temperature yesterday: 62 °F

Past Weeks' High & Low Weather Summary

 TemperatureHumidityPressure
High84 °F (May 14, 4:45 PM)100% (May 10, 4:45 AM)30.27 "Hg (May 10, 4:45 AM)
Low54 °F (May 22, 7:45 AM)51% (May 14, 4:45 PM)29.65 "Hg (May 15, 6:45 AM)
Average67 °F84%29.94 "Hg
* Reported May 10 12:15 AM — May 25 12:45 AM, San Marino, Weather by CustomWeather, © 2015

Note: Actual official high and low records may vary slightly from our data, if they occured in-between our weather recording intervals... More about our weather records

Advertising

San Marino weather history for previous 24 hours

 ConditionsComfort  
Time TempWeatherWind HumidityBarometerVisibility
12:45 AM
Mon, May 25
57 °FClear.2 mph100%29.92 "Hg10 mi
12:15 AM59 °FClear.1 mph100%29.92 "Hg10 mi
11:45 PM
Sun, May 24
59 °FClear.1 mph100%29.92 "Hg10 mi
11:15 PM61 °FClear.3 mph100%29.92 "Hg10 mi
10:45 PM61 °FClear.3 mph100%29.92 "Hg10 mi
10:15 PM61 °FClear.5 mph100%29.92 "Hg10 mi
9:45 PM63 °FClear.5 mph94%29.92 "Hg10 mi
9:15 PM63 °FSunny.1 mph88%29.92 "Hg10 mi
8:45 PM66 °FSunny.No wind78%29.92 "Hg10 mi
8:15 PM68 °FPassing clouds.1 mph73%29.92 "HgN/A
7:45 PM68 °FSunny.2 mph73%29.95 "Hg10 mi
7:15 PM68 °FScattered clouds.3 mph73%29.92 "HgN/A
6:45 PM68 °FPassing clouds.5 mph69%29.95 "HgN/A
6:15 PM68 °FScattered clouds.5 mph69%29.92 "HgN/A
5:45 PM68 °FPartly sunny.5 mph69%29.95 "HgN/A
5:15 PM68 °FScattered clouds.6 mph69%29.95 "HgN/A
4:45 PM68 °FPassing clouds.8 mph69%29.95 "HgN/A
4:15 PM68 °FPassing clouds.8 mph73%29.95 "HgN/A
3:45 PM68 °FPassing clouds.8 mph78%29.95 "HgN/A
3:15 PM68 °FPartly sunny.9 mph78%29.95 "HgN/A
2:45 PM66 °FBroken clouds.9 mph83%29.95 "HgN/A
2:15 PM66 °FBroken clouds.8 mph83%29.95 "HgN/A
1:45 PM66 °FBroken clouds.9 mph83%29.95 "HgN/A
1:15 PM66 °FPartly sunny.9 mph83%29.95 "HgN/A
12:45 PM66 °FBroken clouds.6 mph83%29.95 "HgN/A
12:15 PM64 °FLight rain. Scattered clouds.6 mph88%29.95 "Hg5 mi
11:45 AM64 °FLight rain. Scattered clouds.8 mph88%29.95 "Hg5 mi
11:15 AM64 °FPartly sunny.8 mph88%29.95 "Hg6 mi
10:45 AM63 °FScattered clouds.10 mph100%29.95 "Hg4 mi
10:15 AM61 °FFog.9 mph100%29.95 "Hg2 mi
9:45 AM59 °FFog.8 mph100%29.95 "Hg2 mi
9:15 AM59 °FFog.10 mph100%29.92 "Hg2 mi
8:45 AM59 °FLight rain. Fog.10 mph100%29.92 "Hg2 mi
8:15 AM59 °FLight rain. Fog.13 mph100%29.92 "Hg1 mi
7:45 AM57 °FLight rain. Fog.10 mph100%29.92 "Hg2 mi
7:15 AM57 °FLight rain. Fog.7 mph100%29.92 "Hg2 mi
6:45 AM57 °FLight rain. Fog.9 mph100%29.92 "Hg1 mi
6:15 AM57 °FThunderstorms. Passing clouds.10 mph100%29.92 "Hg1 mi
5:45 AM57 °FThunderstorms. Fog.8 mph100%29.92 "Hg1 mi
5:15 AM57 °FLight rain. Fog.6 mph100%29.89 "Hg1 mi
4:45 AM57 °FPassing clouds.7 mph100%29.89 "Hg4 mi
4:15 AM57 °FPassing clouds.7 mph100%29.89 "Hg4 mi
3:45 AM57 °FPassing clouds.6 mph100%29.89 "Hg4 mi
3:15 AM57 °FPassing clouds.6 mph100%29.92 "Hg5 mi
2:45 AM57 °FPassing clouds.5 mph100%29.92 "Hg5 mi
2:15 AM59 °FLight rain. Passing clouds.3 mph94%29.92 "Hg4 mi
1:15 AM59 °FLight rain. Passing clouds.5 mph100%29.92 "Hg4 mi
Weather by CustomWeather, © 2015

See weather overviewHow to use our weather pages